TimeEDT,TemperatureF,Dew PointF,Humidity,Sea Level PressureIn,VisibilityMPH,Wind Direction,Wind SpeedMPH,Gust SpeedMPH,PrecipitationIn,Events,Conditions,WindDirDegrees,DateUTC
12:54 AM,64.0,62.1,93,30.03,6.0,Calm,Calm,-,N/A,,Clear,0,2012-10-06 04:54:00
1:54 AM,64.0,61.0,90,30.02,8.0,Calm,Calm,-,N/A,,Clear,0,2012-10-06 05:54:00
2:54 AM,63.0,61.0,93,30.00,5.0,Calm,Calm,-,N/A,,Clear,0,2012-10-06 06:54:00
3:18 AM,62.6,62.6,100,30.00,1.8,Calm,Calm,-,N/A,,Clear,0,2012-10-06 07:18:00
3:37 AM,62.6,60.8,94,30.00,0.5,Calm,Calm,-,N/A,Fog,Fog,0,2012-10-06 07:37:00
3:47 AM,62.6,60.8,94,30.00,1.2,Calm,Calm,-,N/A,,Clear,0,2012-10-06 07:47:00
3:50 AM,62.6,60.8,94,30.00,3.0,Calm,Calm,-,N/A,,Clear,0,2012-10-06 07:50:00
3:54 AM,62.1,61.0,96,29.99,2.5,Calm,Calm,-,N/A,,Clear,0,2012-10-06 07:54:00
4:09 AM,62.6,60.8,94,30.00,1.8,Calm,Calm,-,N/A,,Clear,0,2012-10-06 08:09:00
4:21 AM,60.8,60.8,100,30.00,3.0,Calm,Calm,-,N/A,,Clear,0,2012-10-06 08:21:00
4:54 AM,61.0,59.0,93,29.99,6.0,Calm,Calm,-,N/A,,Clear,0,2012-10-06 08:54:00
5:03 AM,60.8,59.0,94,29.99,5.0,Calm,Calm,-,N/A,,Scattered Clouds,0,2012-10-06 09:03:00
5:12 AM,60.8,59.0,94,29.99,4.0,Calm,Calm,-,N/A,,Mostly Cloudy,0,2012-10-06 09:12:00
5:20 AM,60.8,59.0,94,30.00,5.0,Calm,Calm,-,N/A,,Scattered Clouds,0,2012-10-06 09:20:00
5:35 AM,60.8,59.0,94,30.00,1.5,Calm,Calm,-,N/A,,Scattered Clouds,0,2012-10-06 09:35:00
5:42 AM,62.6,60.8,94,30.00,0.5,Calm,Calm,-,N/A,Fog,Fog,0,2012-10-06 09:42:00
5:54 AM,60.1,59.0,96,29.99,0.8,Calm,Calm,-,N/A,,Scattered Clouds,0,2012-10-06 09:54:00
5:57 AM,60.8,59.0,94,30.00,2.5,Calm,Calm,-,N/A,,Scattered Clouds,0,2012-10-06 09:57:00
6:04 AM,60.8,59.0,94,30.00,4.0,Calm,Calm,-,N/A,,Scattered Clouds,0,2012-10-06 10:04:00
6:54 AM,60.1,57.9,93,29.99,6.0,Calm,Calm,-,N/A,,Clear,0,2012-10-06 10:54:00
7:54 AM,62.1,59.0,90,29.99,6.0,Calm,Calm,-,N/A,,Partly Cloudy,0,2012-10-06 11:54:00
8:54 AM,69.1,64.0,84,29.99,8.0,Calm,Calm,-,N/A,,Clear,0,2012-10-06 12:54:00
9:54 AM,73.9,63.0,68,30.00,10.0,West,5.8,-,N/A,,Clear,260,2012-10-06 13:54:00
10:54 AM,78.1,60.1,54,29.99,10.0,West,5.8,-,N/A,,Clear,260,2012-10-06 14:54:00
11:54 AM,80.1,61.0,52,29.98,10.0,WSW,12.7,-,N/A,,Clear,250,2012-10-06 15:54:00
12:54 PM,81.0,62.1,52,29.95,10.0,West,5.8,-,N/A,,Clear,270,2012-10-06 16:54:00
1:54 PM,82.0,61.0,49,29.91,10.0,WSW,11.5,-,N/A,,Partly Cloudy,250,2012-10-06 17:54:00
2:54 PM,82.0,60.1,47,29.91,10.0,Variable,3.5,-,N/A,,Scattered Clouds,0,2012-10-06 18:54:00
3:54 PM,80.1,63.0,56,29.90,10.0,SW,9.2,-,N/A,,Partly Cloudy,220,2012-10-06 19:54:00
4:54 PM,79.0,63.0,58,29.89,10.0,South,8.1,-,N/A,,Clear,190,2012-10-06 20:54:00
5:54 PM,75.9,64.9,69,29.91,10.0,SSW,8.1,-,N/A,,Clear,200,2012-10-06 21:54:00
6:54 PM,73.0,64.9,76,29.92,10.0,SSW,3.5,-,N/A,,Clear,200,2012-10-06 22:54:00
7:54 PM,71.1,64.9,81,29.94,10.0,South,4.6,-,N/A,,Clear,190,2012-10-06 23:54:00
8:54 PM,71.1,64.0,78,29.95,10.0,South,4.6,-,N/A,,Clear,190,2012-10-07 00:54:00
9:54 PM,69.1,64.0,84,29.96,10.0,South,3.5,-,N/A,,Clear,190,2012-10-07 01:54:00
10:54 PM,69.1,64.0,84,29.96,10.0,SSW,3.5,-,N/A,,Clear,210,2012-10-07 02:54:00
11:54 PM,66.9,63.0,87,29.95,9.0,Calm,Calm,-,N/A,,Clear,0,2012-10-07 03:54:00